Regional Weather Roundup
Issued by NWS Raleigh/Durham, NC

Home | Current Version | Previous Version | Text Only | Print | Product List | Glossary On
Versions: 1 2 3 4 5 6 7 8 9 10 11 12 13 14 15 16 17 18 19 20 21 22 23 24 25 26 27 28 29 30 31 32 33 34 35 36 37 38 39 40 41 42 43 44 45 46 47 48 49 50
000
ASUS42 KRAH 270810
RWRRAH
NORTH CAROLINA WEATHER ROUNDUP
NATIONAL WEATHER SERVICE RALEIGH NC
400 AM EDT FRI MAR 27 2015

NOTE: "FAIR" INDICATES FEW OR NO CLOUDS BELOW 12,000 FEET WITH NO
SIGNIFICANT WEATHER AND/OR OBSTRUCTIONS TO VISIBILITY.

NCZ001-053-055-056-065-067-270900-
WESTERN NORTH CAROLINA

CITY           SKY/WX    TMP DP  RH WIND       PRES   REMARKS
ASHEVILLE      CLOUDY    45  41  86 NW14      29.75F
JEFFERSON      LGT RAIN  40  37  86 N10G17    29.74F WCI  34
MORGANTON      CLOUDY    55  41  57 NW9       29.75S
HICKORY        CLOUDY    58  45  62 N7        29.69F
RUTHERFORDTON  CLOUDY    56  43  62 N5        29.70F
MOUNT AIRY     CLOUDY    50  42  73 NW10G20   29.74F
BOONE          LGT RAIN  40  40 100 NW8G20    29.74F WCI  35
$$

NCZ021-022-025-041-071-084-088-270900-
CENTRAL NORTH CAROLINA

CITY           SKY/WX    TMP DP  RH WIND       PRES   REMARKS
CHARLOTTE      MOCLDY    61  55  82 CALM      29.67F
GREENSBORO     CLOUDY    56  44  64 N10       29.70R
WINSTON-SALEM  CLOUDY    56  44  64 NW10      29.71F
RALEIGH-DURHAM CLOUDY    63  57  81 SW9       29.66F
FORT BRAGG     CLOUDY    66  59  78 SW7       29.66F
FAYETTEVILLE   CLOUDY    65  58  78 S7        29.67F
BURLINGTON     CLOUDY    60  53  77 N13       29.69R
LAURINBURG     CLOUDY    64  58  80 SW8       29.68F
$$

NCZ011-015-027-028-043-044-047-080-103-270900-
NORTHEASTERN NORTH CAROLINA

CITY           SKY/WX    TMP DP  RH WIND       PRES   REMARKS
ROCKY MT-WILSO CLOUDY    64  58  80 S6        29.67F
GREENVILLE     CLOUDY    63  55  77 SW7       29.71F
WASHINGTON     DRIZZLE   63  58  83 SW5       29.69F
ELIZABETH CITY CLOUDY    63  57  81 SW14      29.67F
MANTEO         CLOUDY    62  57  83 SW10      29.70F
CAPE HATTERAS  CLOUDY    63  60  90 W12       29.70F
$$

NCZ078-087-090-091-093-098-101-270900-
SOUTHEASTERN NORTH CAROLINA

CITY           SKY/WX    TMP DP  RH WIND       PRES   REMARKS
LUMBERTON      CLOUDY    66  57  72 S7        29.68F
GOLDSBORO      CLOUDY    64  63  98 S2        29.66F
KINSTON        DRIZZLE   63  58  82 S9        29.69F
KENANSVILLE    CLOUDY    62  56  82 CALM      29.70F
NEW BERN       LGT RAIN  66  60  81 SW10      29.71F
CHERRY POINT   CLOUDY    66  59  78 SW13      29.72F
BEAUFORT       CLOUDY    61  60  97 SW5       29.71F
JACKSONVILLE   LGT RAIN  65  61  87 SW7       29.71F
WILMINGTON     LGT RAIN  65  61  87 SW8       29.72F
$$




USA.gov is the U.S. government's official web portal to all federal, state and local government web resources and services.